sat.trackr.live / text

‹ back to catalog

ZORKIY-2M-VPE

NORAD 67252 · 2025-313E

PAYLOAD ACTIVE UNKNOWN

§ Identity

Operator
Country
CIS
Launch date
2025-12-28
Launch site
VOSTO
Launch vehicle
Mass (kg)
RCS (m²)

External: N2YO · Heavens-Above · Gunter

§ Orbital elements

Epoch: 2026-05-25T04:53:03.169824Z

Period
94.49 min
Inclination
97.3947°
Eccentricity
0.0011459
Mean motion
15.23892951 rev/d
Perigee alt
486.2 km
Apogee alt
502.0 km
Semi-major
6,872.2 km
B*
2.9845e-4
RAAN
220.5092°
Arg perigee
71.1702°
Mean anomaly
289.0777°
Rev number
2,247

§ Raw data

ZORKIY-2M-VPE1 67252U 25313E   26145.20350891  .00007149  00000+0  29845-3 0  99932 67252  97.3947 220.5092 0011459  71.1702 289.0777 15.23892951 22471

JSON: /api/v1/satellites/67252 · /tle

For live sub-satellite position, see the globe view (requires WebGL).

§ Visibility from observer

Set your observer location to see the next 7 days of passes ≥ 10°. The values pass through the URL so the page stays shareable.

No JS? Fill the form by hand. The geolocation button needs JavaScript.